Theta_e
305 298 295 296 297 300 300 299 299 300 299 298 297 296 294 294 296 300 301 303 302 299 296 298 297 298 300 301 303 304 305 305 310 310 312 314 314 314 315 316 318 319 321 327 330 332 332 332 333 334 335 335 334 332 331 330 329 330 331 330 329 332 333 333 338 335 332 330 329 328 330 331 333 332 333 336 337 337 337 337 338 339 339 339 339 339
304 296 296 299 301 302 302 302 301 299 299 298 296 295 294 294 293 299 299 302 302 299 296 297 297 299 300 301 303 304 302 305 311 312 313 313 314 316 320 323 326 328 330 331 330 333 333 333 333 333 333 335 333 333 332 332 331 330 330 330 329 330 331 332 334 338 337 334 331 328 327 329 330 331 332 332 335 336 337 337 337 339 339 339 339 339
298 295 300 303 304 303 302 303 301 300 298 297 294 294 294 294 297 298 300 301 302 300 295 296 295 297 299 301 302 304 303 308 313 313 312 314 316 319 322 325 326 327 328 329 331 332 333 333 333 333 333 333 333 332 332 332 333 329 328 330 331 331 331 332 334 335 335 337 333 330 330 330 329 331 333 333 334 336 335 335 336 338 338 339 338 338
295 296 302 305 305 302 301 301 299 298 297 295 294 292 291 295 293 291 298 300 301 299 295 296 296 297 298 299 305 311 311 311 314 316 317 318 319 321 324 325 324 323 322 322 324 325 327 328 329 331 331 332 332 330 330 331 332 331 330 329 330 331 331 332 334 335 335 335 334 332 333 334 333 332 334 335 335 335 335 335 336 336 338 338 338 337
296 302 304 302 302 301 299 299 298 296 293 296 297 294 294 294 295 294 294 298 298 300 300 298 296 295 295 300 305 310 314 314 314 315 317 320 324 326 327 325 323 319 318 318 319 321 322 322 324 326 329 332 333 333 330 331 332 331 329 329 329 330 332 333 334 334 335 334 333 334 333 333 336 336 335 334 334 335 336 337 335 335 337 338 339 337
298 302 303 301 300 299 298 297 297 296 292 293 296 299 296 296 295 296 297 296 292 292 295 297 286 288 294 300 304 306 308 309 311 313 316 320 323 324 322 320 320 320 319 318 318 319 320 321 322 323 326 328 332 333 332 332 332 330 330 330 331 331 332 332 333 334 334 333 331 329 328 329 332 332 333 332 333 334 335 336 337 336 336 337 338 337
299 303 301 300 299 297 297 297 299 297 293 292 295 299 297 297 296 295 296 294 287 288 295 297 288 285 293 296 303 305 305 305 308 310 314 317 320 321 320 319 319 318 318 319 319 320 319 320 320 321 323 326 330 333 333 331 330 329 330 331 331 330 330 332 333 334 333 331 331 330 329 329 328 328 330 333 334 335 335 331 332 337 336 335 336 335
301 302 300 300 298 296 295 295 298 297 291 292 298 298 298 296 295 295 295 294 290 295 297 297 292 287 285 296 300 305 304 305 308 312 315 318 318 317 318 317 315 313 313 312 313 314 315 316 315 315 319 324 329 333 333 331 330 328 328 329 330 331 332 332 333 333 332 331 330 329 330 330 329 328 328 330 330 331 332 332 335 336 336 334 335 335
301 298 298 298 297 293 296 299 300 299 296 295 298 298 295 295 295 295 294 292 293 291 287 293 296 288 287 295 301 304 301 302 304 307 312 314 316 315 312 310 310 310 310 311 310 311 312 312 312 313 313 318 325 331 331 330 330 330 329 329 329 330 331 333 333 333 333 333 331 330 330 329 330 330 330 331 331 330 332 329 330 333 335 334 332 335
301 301 301 301 299 296 300 299 299 299 294 298 298 299 298 297 296 296 292 292 291 287 283 289 293 286 289 295 298 302 300 299 301 302 303 304 305 306 306 307 307 309 309 310 310 310 311 312 312 312 312 312 316 324 330 329 329 329 329 329 330 329 330 331 331 332 333 333 332 330 329 328 328 329 329 329 328 330 330 329 329 330 334 335 334 333
301 306 308 302 298 301 300 300 299 298 299 300 298 296 294 293 291 293 292 290 287 282 285 292 293 289 284 293 298 298 299 300 300 301 302 304 304 305 305 305 306 306 307 308 309 309 310 311 311 312 311 311 312 316 321 323 324 325 326 327 328 328 329 329 330 332 332 334 333 330 329 329 328 329 328 327 327 329 330 329 329 330 331 333 334 335
301 301 300 301 306 303 304 298 301 299 299 298 292 291 290 289 290 288 287 288 284 280 287 291 291 292 285 292 297 299 301 302 301 299 300 301 302 302 303 303 304 305 305 306 307 308 308 308 310 310 309 310 310 312 315 319 320 320 321 323 325 326 327 327 328 328 329 331 331 331 331 330 329 328 328 327 326 327 327 328 329 330 332 333 334 335
294 297 300 301 307 302 298 293 297 296 297 295 291 290 285 280 281 278 282 281 279 282 288 291 292 288 292 296 298 299 300 300 301 302 301 301 301 301 301 302 302 303 304 305 305 306 306 305 306 308 308 308 309 310 312 315 317 317 318 320 320 322 325 325 326 326 326 327 329 330 331 331 331 331 330 329 327 328 328 329 330 330 329 331 332 334
291 297 299 299 300 303 298 291 290 290 292 292 290 285 280 278 275 276 275 280 279 286 292 290 292 286 294 297 299 298 300 301 301 301 301 301 300 300 301 301 301 302 302 304 304 305 305 305 305 307 308 307 307 308 310 313 314 314 314 316 318 317 318 320 323 324 325 326 327 328 329 330 331 330 331 330 330 329 329 329 329 329 329 329 330 333
282 285 292 296 292 300 298 296 295 293 292 291 293 290 286 283 281 277 279 279 280 283 287 291 288 284 290 292 300 300 301 301 301 301 300 301 300 300 300 300 300 300 301 302 303 304 305 305 305 305 307 306 306 308 310 311 311 311 311 312 314 314 313 313 314 318 322 322 324 326 327 328 329 330 330 330 331 330 330 330 329 330 331 330 330 332
291 288 293 299 299 299 297 300 300 296 291 291 294 292 287 287 285 282 280 282 281 281 281 284 285 289 291 299 301 301 300 300 301 299 300 298 300 299 299 299 299 299 300 300 301 302 304 305 305 304 305 306 306 307 308 309 310 309 309 310 310 310 309 309 310 311 316 318 319 321 323 325 327 329 330 330 331 332 332 331 330 330 331 332 332 333
287 284 296 298 299 297 298 300 298 299 286 290 292 287 291 292 291 284 282 287 287 280 280 280 288 294 297 298 299 299 298 298 299 298 298 297 298 298 298 298 298 298 298 299 300 300 302 303 302 303 303 304 306 305 306 308 308 307 306 307 308 306 305 306 306 306 310 314 315 316 318 321 323 325 326 328 329 330 332 332 332 331 332 333 333 333
285 287 294 295 295 299 301 300 298 298 297 292 286 291 295 296 294 287 281 278 278 278 278 284 285 289 290 284 298 297 296 298 297 296 297 297 296 296 297 297 298 298 298 299 300 300 300 302 303 301 303 304 304 305 305 307 308 307 306 306 307 306 304 304 303 305 307 309 312 314 315 316 318 321 324 327 329 330 331 331 332 333 332 333 334 334
292 285 288 295 297 299 302 297 296 297 298 294 294 297 292 282 284 284 282 276 276 275 275 281 285 286 292 288 294 295 294 294 295 296 295 295 296 296 296 297 297 297 298 297 298 298 298 299 299 299 301 303 304 305 305 306 307 305 305 308 307 306 305 304 304 305 306 307 309 312 313 313 314 316 319 323 326 329 329 329 331 331 332 333 334 334
294 284 286 295 295 297 298 292 285 291 298 300 298 293 294 288 286 283 283 283 282 276 276 277 282 281 291 290 295 295 295 294 294 293 294 294 296 296 296 297 297 297 297 297 298 298 298 299 299 299 300 301 302 302 302 301 301 302 303 305 306 306 304 303 303 304 303 305 306 308 310 311 311 314 316 318 321 323 325 328 329 330 330 331 333 334
291 292 281 287 295 296 289 290 290 290 288 291 292 288 289 290 292 290 289 286 282 277 277 276 277 281 288 295 296 296 295 295 294 294 294 295 295 296 296 296 296 296 297 297 297 296 297 297 298 299 301 301 301 302 300 299 299 300 302 302 304 304 303 302 303 303 303 304 305 307 306 308 309 310 313 315 317 319 321 325 328 329 330 331 331 333
286 289 284 285 288 287 290 295 295 295 294 291 290 288 289 287 286 282 282 289 288 284 280 278 277 282 290 302 297 296 296 295 295 294 294 295 295 295 296 296 296 295 296 296 296 295 296 296 296 297 302 300 299 298 297 298 299 299 300 301 302 303 303 302 302 303 303 303 304 304 305 306 307 307 309 311 313 315 317 321 324 327 329 329 331 332
292 288 288 283 286 288 293 297 299 298 297 296 293 290 293 290 287 282 279 279 285 285 288 283 280 280 292 298 297 296 295 295 295 295 294 295 295 294 294 295 295 295 295 297 296 295 296 295 295 296 300 298 298 298 297 298 298 299 299 300 301 302 301 302 302 303 303 303 302 303 304 304 304 305 306 308 310 312 315 317 321 325 328 329 330 331
304 287 284 285 287 289 293 295 295 297 296 293 292 294 291 287 290 286 284 285 282 283 282 279 279 280 290 297 296 295 296 295 295 294 294 294 295 294 293 293 293 294 294 297 296 296 295 295 295 294 298 298 298 297 297 297 298 298 299 299 300 301 301 302 302 303 302 302 302 301 302 302 302 303 304 305 308 310 313 315 318 322 325 328 329 329
286 286 285 280 279 283 283 287 289 293 294 290 290 290 292 292 293 291 290 286 282 282 285 280 278 278 290 297 296 295 295 294 293 294 293 293 292 293 293 293 293 294 294 294 294 294 294 294 294 294 295 296 296 296 296 297 297 297 297 298 300 301 301 301 302 302 302 301 300 300 300 300 301 301 302 304 306 309 312 315 317 320 323 326 327 327
289 285 284 279 276 275 275 275 278 282 286 289 293 292 292 292 290 289 281 282 280 283 285 280 279 285 289 293 295 294 292 291 292 292 293 291 291 291 291 292 292 292 292 293 292 292 292 293 294 294 294 295 296 296 296 297 297 296 297 297 299 299 300 300 300 301 302 301 300 299 299 300 300 301 301 304 306 309 312 315 317 319 322 325 326 328
287 290 285 284 281 281 283 286 288 292 288 286 289 290 290 292 293 290 285 283 282 282 282 283 286 287 289 291 290 290 289 288 289 290 290 291 291 291 290 291 292 292 292 291 292 292 291 292 292 292 294 295 296 296 297 296 296 296 296 297 299 299 299 300 300 301 301 300 299 299 299 299 299 301 301 303 305 309 311 313 315 317 319 322 325 327
287 284 287 288 287 288 289 288 290 292 288 289 288 288 291 291 292 291 285 285 287 283 282 286 288 286 287 289 289 288 289 289 289 289 290 290 290 291 291 291 296 291 291 291 291 291 291 291 291 291 292 295 297 297 296 296 296 296 296 296 297 298 300 301 301 300 300 299 298 298 298 299 300 301 302 304 306 307 310 313 314 316 318 322 324 326
287 282 286 288 288 289 290 290 292 291 290 290 289 289 289 290 290 288 288 290 290 285 283 288 287 286 288 289 289 288 288 288 288 289 290 290 290 290 290 290 289 289 290 290 290 290 291 291 291 292 293 294 295 295 294 295 296 296 297 297 298 298 299 300 299 299 298 298 298 298 298 299 300 302 302 303 304 306 309 312 314 316 318 321 323 326
289 284 287 289 288 289 290 291 291 290 289 289 289 289 290 290 289 289 289 290 289 287 289 289 289 288 289 288 287 287 289 289 288 289 290 289 290 290 290 289 289 290 290 290 290 291 292 292 293 293 294 294 294 294 295 296 296 296 296 296 296 297 299 299 298 298 298 297 298 298 299 299 300 301 301 302 304 306 309 311 314 316 318 320 322 324
291 283 293 290 286 285 288 290 290 290 289 287 289 289 290 290 290 290 289 289 290 288 289 288 286 285 287 289 289 289 288 288 288 288 288 289 289 290 289 289 289 290 290 290 292 293 293 293 293 293 293 293 294 294 295 296 296 296 296 296 296 297 298 299 298 298 297 297 298 298 298 299 299 300 300 302 304 305 306 308 312 315 317 319 321 324
292 283 289 287 283 283 288 288 289 289 288 286 286 287 288 288 286 288 286 288 286 285 285 283 282 282 285 287 288 287 287 288 288 288 289 290 290 290 289 289 290 290 290 291 293 293 293 294 293 294 295 295 295 295 294 295 295 296 296 296 297 297 299 298 298 297 297 298 298 298 298 299 299 299 300 302 302 303 304 306 310 314 316 318 320 323
289 284 284 281 282 281 286 289 287 286 284 282 284 287 289 289 289 289 289 291 289 287 281 279 282 283 286 289 286 286 287 288 288 288 290 291 291 290 289 290 290 290 291 293 293 295 294 294 294 294 295 295 296 296 296 296 295 295 296 297 298 299 298 298 297 297 297 297 298 298 298 298 298 299 300 301 301 302 304 306 309 313 315 316 317 318
289 288 284 284 281 279 286 285 285 281 276 279 286 289 290 288 288 286 285 286 287 287 283 284 284 285 285 285 285 286 287 288 289 289 291 290 290 290 291 291 291 292 292 293 293 294 295 295 295 296 295 295 296 296 297 298 298 298 299 299 300 298 297 297 297 296 297 297 297 297 298 298 298 299 299 300 301 302 303 306 309 314 315 316 317 317
288 287 283 283 282 281 283 282 279 275 278 287 290 292 292 290 289 287 287 288 288 288 288 286 286 285 286 286 287 288 289 290 290 291 291 293 292 291 291 292 292 293 293 294 294 295 295 295 295 294 295 296 298 299 297 297 298 298 298 298 298 298 297 297 297 296 296 296 297 297 298 298 298 298 299 299 301 302 303 306 310 313 314 315 315 314
287 287 284 283 283 282 281 279 271 276 284 289 290 291 293 290 288 287 285 286 289 288 288 285 286 286 287 288 289 290 290 290 290 292 293 294 294 293 292 292 293 294 294 295 295 295 295 295 294 295 295 298 299 298 299 299 299 298 298 298 298 298 297 297 296 296 296 297 297 298 298 298 297 297 298 299 301 302 303 306 310 312 314 314 313 313
293 289 287 283 286 280 281 279 281 286 286 288 288 289 287 285 284 283 278 280 286 288 287 287 286 287 288 288 289 290 290 290 288 288 292 294 295 295 295 295 296 296 296 297 297 297 297 296 296 296 298 298 299 299 299 299 299 298 298 297 297 297 297 297 296 297 297 299 298 299 298 298 297 298 299 300 301 302 304 306 310 312 314 312 311 311
294 289 288 285 283 286 282 279 278 275 275 280 287 291 294 292 290 288 284 280 286 288 289 288 287 287 287 288 289 289 289 287 286 286 290 293 296 296 297 297 297 297 297 297 298 297 297 297 298 298 299 298 299 299 299 299 299 298 297 296 297 296 296 296 296 297 298 298 298 298 297 298 298 298 300 300 301 302 304 308 311 312 313 311 310 310
294 293 290 287 283 283 282 279 278 275 276 283 287 291 292 291 291 289 283 279 283 288 289 289 287 286 287 287 288 288 286 283 284 287 290 293 295 296 296 297 297 297 298 298 298 297 298 298 298 300 300 298 297 298 299 298 298 297 296 297 297 296 296 296 297 297 297 298 298 297 298 299 299 299 300 301 302 303 306 309 311 313 313 313 313 312
290 287 286 284 283 283 281 279 278 281 279 284 290 290 290 291 290 284 275 272 284 287 288 289 288 288 288 288 289 287 285 283 286 290 295 296 297 297 296 296 297 297 298 299 299 299 299 300 299 298 297 297 297 299 299 298 297 297 297 298 297 296 296 297 298 299 298 298 297 298 299 299 301 301 301 301 302 304 307 310 311 311 311 311 311 312
285 285 285 283 284 283 282 281 281 281 287 289 291 290 291 293 288 276 272 278 286 288 289 290 290 290 290 290 289 287 289 291 293 295 297 297 297 297 298 298 298 298 298 298 298 301 299 299 299 298 298 298 298 299 299 298 296 295 296 296 295 295 297 298 299 298 298 296 297 298 298 299 300 301 301 302 303 306 310 310 310 310 310 309 310 311
286 285 284 284 282 281 282 280 281 283 289 290 291 292 294 288 277 275 282 288 290 290 291 291 291 291 291 292 291 291 293 295 297 297 296 296 295 296 297 297 298 298 298 299 300 300 299 299 299 298 298 298 299 299 298 297 295 295 294 293 293 295 297 298 297 297 296 295 297 298 299 300 300 302 302 303 305 307 309 310 310 310 310 310 310 311
286 283 283 283 284 283 283 281 279 277 287 294 293 290 294 282 282 288 289 291 293 291 291 292 292 292 293 292 293 294 294 294 294 294 294 295 295 295 296 296 296 296 296 297 298 299 300 298 298 298 298 298 298 298 298 297 296 296 296 294 295 297 297 297 297 296 296 296 298 299 300 300 301 301 302 304 306 309 309 310 309 308 309 308 307 306
293 284 284 285 286 280 281 279 280 286 288 295 290 282 289 291 292 292 291 288 291 291 292 292 292 293 294 293 293 293 293 293 293 293 293 294 295 297 297 297 297 297 297 298 299 299 299 298 298 297 297 297 297 297 297 297 296 296 296 295 297 296 297 296 296 295 296 297 298 298 299 300 302 302 303 305 307 310 309 308 308 308 308 308 307 304
292 288 288 284 290 286 283 285 289 292 292 294 294 293 293 294 294 294 293 292 291 291 294 292 292 294 294 293 292 292 291 292 292 293 293 294 295 295 295 296 296 296 296 297 298 299 298 298 297 297 296 296 296 296 296 295 295 296 295 296 297 297 296 296 295 296 296 296 297 298 299 300 301 302 303 306 309 308 308 308 308 307 305 307 305 304
292 293 293 290 287 292 292 292 293 293 294 295 296 296 295 297 296 295 294 293 293 294 294 293 293 292 292 292 291 292 292 292 292 293 294 294 294 295 295 295 294 295 295 296 297 297 298 298 297 296 296 296 296 295 296 296 296 295 295 296 297 297 296 295 296 295 296 297 298 299 299 300 301 302 303 307 308 308 309 308 308 307 306 306 305 303
290 291 289 285 290 285 282 290 289 291 294 294 294 297 297 297 296 296 294 294 294 295 295 294 293 292 292 293 292 291 291 292 292 293 294 293 293 293 292 292 293 293 294 295 297 298 297 297 296 295 296 295 296 296 296 296 296 296 296 297 298 297 295 295 296 297 297 297 299 299 299 299 300 301 302 305 306 306 307 307 307 307 307 306 303 302
286 291 284 287 287 284 284 290 291 293 294 294 294 294 295 296 296 296 297 296 295 296 295 294 293 292 293 292 292 292 292 293 292 292 292 292 292 292 292 292 293 294 296 297 298 298 296 295 294 294 295 295 296 296 297 296 296 297 297 297 297 296 295 296 297 296 297 299 300 299 298 298 301 301 300 303 304 305 306 307 307 306 306 306 304 303
287 290 282 288 284 286 289 290 292 293 293 293 295 295 295 295 295 296 297 296 295 294 294 294 294 293 292 292 292 292 292 293 293 292 292 291 291 291 292 293 294 295 296 296 297 297 295 295 295 295 295 295 296 296 296 296 296 297 296 297 297 296 294 295 296 297 298 300 300 298 298 299 300 300 301 302 304 305 306 304 301 305 307 308 307 306
286 283 288 287 283 283 283 285 291 285 284 290 292 294 296 296 296 296 295 294 295 294 293 292 293 293 293 293 293 293 292 292 292 291 290 290 290 291 293 294 294 295 296 297 297 296 295 296 295 294 295 295 295 296 297 297 297 297 297 297 297 295 295 297 297 297 298 299 299 298 298 299 300 301 301 302 302 303 304 299 294 297 303 304 302 298
285 286 286 284 284 283 288 289 292 292 291 292 293 295 296 297 296 294 293 294 294 294 293 292 292 292 293 293 295 293 292 291 291 291 290 290 291 293 294 294 294 295 296 296 296 295 294 294 296 296 295 295 295 296 297 296 296 296 297 297 296 296 296 297 299 299 298 299 298 297 298 299 299 299 300 302 303 302 301 302 299 292 292 294 294 295
Wind_Speed
3 2 5 8 10 12 8 10 12 14 11 6 4 2 6 5 6 7 6 7 5 4 2 4 5 6 10 10 11 9 8 9 14 13 10 10 11 11 11 11 10 11 10 8 9 9 9 8 7 7 7 7 10 5 4 5 9 10 10 10 12 11 11 9 5 2 0 1 3 2 2 2 3 3 3 4 4 5 6 6 6 6 6 6 7 7
3 2 8 12 15 16 12 8 10 12 9 3 3 7 7 4 8 9 5 5 7 3 5 5 6 9 10 11 10 11 5 10 14 16 14 13 12 11 14 14 14 12 11 12 12 11 10 10 9 7 6 4 6 3 1 2 7 9 3 1 4 3 2 2 3 5 1 1 2 4 3 0 1 3 5 6 6 7 6 7 7 7 6 7 7 8
3 6 13 13 14 9 6 13 7 2 4 7 5 3 7 7 5 7 7 7 6 3 6 5 4 7 10 9 12 11 4 10 11 16 13 15 13 12 13 14 13 14 12 13 13 14 13 14 14 11 8 6 4 2 3 2 7 7 3 1 4 6 4 3 3 2 4 6 5 6 7 4 1 3 5 4 4 4 6 6 6 7 7 7 8 8
5 6 15 17 11 8 6 1 6 6 6 5 5 7 3 5 6 7 10 8 9 0 3 2 9 10 6 6 14 13 14 11 13 16 13 13 14 15 14 13 14 14 15 15 13 13 13 13 12 12 12 7 3 2 3 5 6 4 5 2 4 7 6 6 6 5 3 6 6 5 3 7 6 3 3 5 5 5 5 7 7 7 8 7 8 8
8 11 4 4 3 4 2 5 6 7 6 2 1 2 2 4 5 3 7 8 7 4 2 8 10 9 5 12 10 10 13 15 11 14 15 15 15 15 15 16 15 15 14 14 14 13 13 15 14 14 13 13 14 11 7 6 5 5 4 2 3 5 7 6 6 5 3 2 5 4 6 7 6 4 3 4 5 7 7 6 6 7 7 9 9 7
8 6 2 9 5 5 6 5 4 5 6 6 2 2 3 4 6 8 8 6 8 8 5 6 6 6 3 9 10 3 8 11 9 13 14 14 13 16 17 15 14 14 12 13 13 12 13 13 14 15 15 16 15 13 8 6 6 5 5 4 4 5 5 6 5 5 3 3 2 2 2 2 3 4 3 5 5 5 7 4 1 5 8 10 10 8
4 5 5 4 2 5 5 3 1 4 2 3 5 2 3 4 4 6 10 6 5 3 3 5 2 5 7 9 5 3 9 10 7 10 11 12 13 13 12 12 12 13 12 13 13 14 16 15 16 16 15 14 14 12 8 7 6 6 5 5 4 5 5 6 7 8 6 4 1 2 2 3 2 4 4 5 5 4 0 4 9 8 8 9 9 9
5 11 9 8 4 4 3 5 2 2 3 1 4 3 6 6 6 8 7 2 5 2 6 3 3 3 4 6 4 6 10 12 14 14 13 13 14 14 13 14 15 14 14 14 15 15 15 16 16 16 16 13 13 12 11 9 7 6 6 6 7 6 6 6 7 7 5 6 3 2 2 3 4 5 5 3 3 4 4 5 9 9 7 8 7 9
1 7 6 7 5 3 1 1 2 1 2 1 5 4 4 5 5 6 4 6 2 3 5 9 2 2 0 2 6 4 14 10 12 12 11 12 12 13 14 14 14 14 14 14 14 14 14 14 15 15 16 14 13 12 11 9 8 7 5 5 4 6 7 8 9 9 8 5 4 4 5 5 3 5 7 6 4 3 4 9 8 8 7 7 9 11
2 3 9 5 0 0 2 2 1 4 3 2 4 6 6 7 4 2 3 3 3 5 2 6 4 3 1 3 2 3 9 10 9 12 13 13 14 13 12 12 12 12 12 13 14 13 13 13 14 13 13 14 12 9 8 8 7 7 6 6 7 7 5 5 7 8 9 8 5 5 5 7 8 6 5 3 3 3 5 9 11 8 7 7 9 12
6 6 4 4 2 3 1 1 4 5 2 2 9 7 7 5 4 4 2 2 5 2 2 4 5 4 1 2 2 1 1 5 8 8 8 9 11 11 11 11 11 10 10 10 11 11 11 10 10 10 12 11 10 9 9 8 7 5 6 5 6 5 5 5 5 5 6 6 7 7 7 8 8 7 7 5 4 3 5 7 9 9 9 9 9 8
8 7 5 1 1 3 1 3 6 3 4 8 4 3 6 7 8 5 5 4 1 2 6 3 5 4 5 0 6 5 8 7 8 10 8 9 9 8 7 8 9 9 8 8 8 8 6 7 7 8 9 8 7 8 8 8 8 9 8 6 6 6 6 5 5 5 5 5 6 5 7 9 9 10 8 7 8 6 6 8 9 9 9 9 9 9
3 4 5 5 4 13 5 6 8 8 9 9 5 8 7 4 6 3 7 4 0 1 2 2 6 3 3 1 7 6 6 5 5 7 8 8 8 7 7 7 6 6 7 8 8 8 8 9 8 7 7 7 7 6 5 6 5 6 7 10 10 8 7 8 6 7 5 4 4 5 6 7 8 8 9 9 9 8 7 7 9 8 10 10 10 10
6 4 7 9 5 8 5 6 7 7 6 7 3 3 4 2 2 0 4 1 4 6 5 4 3 1 1 4 2 6 4 4 5 6 6 7 7 6 6 5 6 6 7 7 7 7 6 6 5 5 5 5 4 5 5 5 7 7 8 8 9 9 8 7 8 9 9 8 7 5 5 6 7 9 9 8 8 9 8 7 9 10 10 10 12 12
2 5 2 4 2 6 5 3 3 2 4 4 3 2 2 4 2 1 2 2 4 7 10 8 4 4 5 4 3 3 4 4 3 4 4 5 5 5 4 5 6 6 5 4 4 4 5 4 4 4 4 4 4 4 4 4 5 5 6 7 8 9 10 11 9 9 10 10 10 9 7 6 6 7 8 9 8 8 9 8 9 11 11 11 12 12
4 6 6 1 4 0 4 4 2 5 6 1 2 6 6 3 6 2 6 3 3 2 4 3 1 2 4 5 3 3 3 3 3 4 4 5 3 3 4 6 5 4 4 3 4 3 3 2 2 3 3 4 4 4 4 4 3 4 4 4 6 8 8 10 11 8 8 9 10 9 10 10 9 8 8 7 8 8 8 9 9 11 12 12 11 11
5 2 2 11 3 5 6 7 4 2 2 3 5 5 6 6 5 0 3 1 1 5 4 2 2 4 3 2 2 3 3 3 2 3 4 4 3 4 6 4 4 4 4 3 3 3 2 2 3 4 3 4 4 4 4 4 4 5 5 5 5 5 6 9 10 11 8 8 10 11 9 10 11 11 11 10 10 10 9 9 9 9 11 12 12 11
1 9 4 1 8 2 6 5 5 3 3 1 2 7 6 1 3 4 3 2 1 2 5 1 4 4 5 3 4 2 3 1 2 3 2 3 3 6 4 3 3 4 3 3 3 3 2 2 3 3 2 3 4 4 4 3 2 2 3 3 4 4 5 7 9 11 10 10 9 10 12 11 10 10 11 12 12 10 9 9 8 9 10 11 12 12
2 6 5 1 3 6 7 6 9 2 4 1 3 5 1 2 3 3 2 2 1 1 2 3 4 3 10 5 5 6 4 4 2 1 1 1 1 3 2 2 3 3 3 3 4 4 3 2 1 1 3 3 3 3 2 1 1 1 1 1 1 1 1 3 5 8 10 10 8 7 9 11 11 10 10 11 12 11 10 10 10 10 11 11 12 12
2 2 7 2 3 6 5 5 3 10 11 1 3 7 2 3 2 2 1 1 2 4 1 5 1 5 2 3 8 7 6 7 5 4 3 3 3 2 2 1 0 2 2 1 1 2 2 1 1 1 3 4 4 4 2 2 3 3 1 1 1 1 2 4 5 6 9 10 10 11 10 10 10 10 10 10 11 11 11 12 11 12 13 13 11 12
1 1 4 5 6 6 5 1 3 2 4 10 10 7 6 1 2 1 1 2 3 3 3 3 4 5 5 4 7 6 6 7 7 4 4 4 3 2 3 3 4 3 3 3 4 4 4 3 2 1 2 3 3 3 3 3 1 1 1 1 0 1 2 3 4 4 6 9 11 11 12 12 12 14 11 11 11 12 12 11 11 12 12 13 12 12
1 0 5 5 6 2 7 5 4 4 4 4 2 4 6 4 5 3 7 3 2 0 3 2 6 6 6 2 4 7 6 5 3 5 5 4 3 3 3 5 5 4 3 4 4 3 3 3 3 2 3 2 3 4 4 3 1 0 1 2 2 1 1 2 3 3 4 6 8 11 11 12 11 12 12 12 12 12 12 11 11 12 13 14 13 11
2 2 0 5 5 6 9 12 12 5 6 8 5 2 2 1 2 1 1 3 4 3 1 2 1 7 4 4 7 7 5 4 4 4 4 4 4 3 4 5 4 4 3 4 4 4 5 5 5 4 6 5 5 5 4 3 1 1 2 3 3 1 2 2 3 3 3 4 7 10 11 11 10 11 13 13 12 12 12 12 12 12 13 13 13 10
3 0 2 6 6 6 9 11 5 3 1 4 2 1 4 3 2 2 2 4 3 3 4 3 2 4 2 2 5 4 2 2 1 2 3 3 3 4 3 4 5 5 5 4 5 5 6 5 5 4 5 6 5 4 3 2 2 2 3 3 3 2 3 3 3 4 4 4 7 9 11 11 11 12 12 13 12 14 13 12 12 12 13 14 13 12
1 2 2 5 5 6 6 8 3 4 6 3 1 3 1 1 0 2 0 2 1 6 8 4 10 2 4 0 1 2 1 2 2 1 2 1 3 4 5 5 5 5 6 6 5 6 6 6 5 4 3 4 4 3 4 4 4 4 3 3 3 3 3 3 4 4 4 4 6 9 11 12 12 12 13 13 12 14 14 13 12 12 13 14 14 13
2 3 1 1 3 5 7 5 6 5 4 5 2 2 4 3 4 7 2 1 3 3 2 4 5 6 4 1 1 1 1 0 2 2 3 3 4 5 4 5 6 6 6 5 6 5 5 5 6 6 6 5 2 4 6 6 6 4 4 3 3 3 4 4 4 4 4 4 6 8 11 11 12 12 13 14 14 14 14 13 12 13 13 14 16 14
1 0 3 6 6 8 10 8 5 0 2 4 10 8 8 1 1 0 1 2 8 3 6 7 6 10 10 9 4 5 4 3 2 5 5 6 6 6 5 5 5 4 4 4 5 6 5 6 7 7 7 6 3 3 3 4 4 5 5 5 5 5 5 5 4 4 4 4 4 6 9 11 11 12 12 13 13 13 14 14 13 14 15 14 15 14
2 0 5 6 9 11 9 8 7 2 5 5 4 9 12 14 4 2 5 9 3 3 15 3 13 10 11 7 2 2 1 2 3 4 5 5 5 5 5 5 6 6 6 6 6 7 7 7 5 5 6 7 7 5 4 5 5 6 6 7 6 6 6 5 5 5 5 4 5 6 9 10 10 11 12 12 13 14 14 14 13 14 14 14 15 15
4 3 5 4 8 9 9 9 7 4 5 4 5 6 11 10 9 11 13 11 4 8 15 15 5 7 4 2 2 4 3 3 4 4 5 5 5 5 5 6 5 5 5 5 5 4 5 5 3 4 4 3 4 6 7 7 7 6 5 6 6 6 7 6 5 6 5 5 5 6 8 9 9 10 11 12 13 14 14 14 14 14 14 14 16 15
2 3 4 6 6 5 6 8 6 6 4 5 7 11 12 11 13 11 14 13 10 11 13 13 13 13 4 5 1 3 4 4 4 4 4 6 7 5 4 4 4 5 5 5 4 5 5 4 3 4 4 4 5 6 7 8 8 8 8 7 7 7 7 6 6 6 6 5 6 6 8 9 10 11 12 12 13 14 14 14 14 14 14 14 16 16
3 6 5 2 2 5 5 7 5 6 8 10 8 9 13 13 12 12 10 12 8 10 10 11 9 9 4 2 1 3 3 3 4 5 5 5 6 5 4 5 5 6 6 5 6 6 6 6 6 5 6 6 6 8 9 9 10 10 8 8 7 8 8 7 7 7 6 7 6 7 7 8 10 11 12 12 12 13 15 17 15 14 14 14 16 15
2 4 1 1 3 5 3 6 8 5 5 6 10 11 14 12 11 9 7 6 5 9 3 0 4 7 4 3 4 4 3 3 4 4 6 7 7 7 6 7 6 6 4 5 6 6 7 7 7 8 9 10 9 7 7 9 10 9 9 9 8 9 8 7 7 8 8 6 6 6 7 8 10 11 12 12 13 14 15 16 16 14 13 14 15 12
3 3 1 0 3 6 4 4 3 4 7 12 14 15 17 13 13 11 6 3 5 3 2 5 9 3 3 3 6 6 5 5 5 5 6 9 9 6 6 6 6 5 5 6 8 7 7 8 8 8 9 8 9 9 9 8 8 9 10 9 10 9 7 8 8 8 7 7 6 7 7 8 10 11 12 13 13 14 15 17 17 15 13 14 13 12
3 4 3 3 4 0 1 2 2 5 10 14 3 5 7 8 7 7 6 4 3 3 3 4 3 2 2 4 3 5 5 6 3 3 3 5 7 7 6 4 5 5 6 7 7 9 9 8 8 7 6 6 7 7 7 6 8 9 9 11 10 9 9 8 8 7 7 6 6 6 7 8 9 11 12 13 14 14 15 16 17 14 12 13 13 10
4 4 5 3 3 6 1 3 6 12 13 5 1 0 2 3 3 4 3 3 2 1 1 3 2 2 3 2 3 5 6 6 3 4 5 6 5 4 5 5 7 7 9 9 10 11 10 10 8 7 8 9 8 8 8 10 10 11 12 11 12 11 10 8 8 7 6 6 6 6 7 8 9 11 12 13 14 15 15 16 15 13 12 12 12 12
6 7 2 2 2 1 2 2 3 10 4 5 4 1 1 5 2 2 4 3 2 1 1 4 5 5 4 4 5 5 6 8 4 3 5 6 2 1 4 6 8 9 10 10 11 12 11 9 8 9 10 10 11 12 12 13 13 13 15 13 12 11 10 9 8 7 6 6 6 7 7 7 9 11 12 13 14 15 16 16 14 13 13 13 13 12
12 3 4 6 4 7 4 6 13 6 13 10 8 3 3 2 2 2 4 5 3 1 2 1 3 4 4 4 5 6 7 7 7 4 4 3 2 3 6 8 9 11 12 12 12 13 10 7 9 10 10 12 14 13 13 13 13 13 14 14 11 10 10 8 7 7 7 6 7 7 7 7 8 11 12 13 14 16 16 15 14 13 12 13 13 12
10 11 7 7 5 7 7 7 5 3 9 2 4 2 1 1 5 4 3 4 1 3 2 1 2 4 5 5 6 6 5 9 13 6 1 2 3 9 9 9 10 11 11 12 12 11 10 10 10 11 12 13 14 13 12 13 13 13 13 13 11 9 8 7 8 8 7 7 7 7 6 7 9 11 12 13 14 16 15 14 12 11 12 13 13 12
9 9 6 11 3 3 5 7 6 6 7 5 2 0 2 4 7 4 2 8 2 1 5 1 3 4 4 4 6 4 7 9 12 9 2 6 10 8 11 11 10 10 11 11 12 13 14 13 12 13 12 12 13 13 13 14 13 13 12 12 10 7 7 7 8 8 8 8 6 5 6 7 9 10 11 14 15 15 15 13 11 12 12 12 12 14
6 5 5 5 7 5 4 5 10 3 3 2 4 2 3 3 4 3 4 4 1 4 5 3 4 5 4 4 4 4 4 8 12 13 11 12 12 11 9 12 14 14 13 13 11 11 13 13 13 14 12 11 13 13 14 13 12 11 11 10 8 8 8 9 10 9 6 5 4 4 7 7 9 11 12 14 15 15 13 10 10 12 11 12 11 12
2 1 6 13 10 8 7 8 4 5 3 3 1 4 1 1 1 1 6 3 2 1 2 1 1 3 2 4 3 6 3 5 10 13 15 14 14 14 12 11 12 13 15 16 16 14 12 11 11 12 12 11 12 12 12 11 10 10 10 10 8 9 11 11 9 5 5 3 4 6 7 7 9 12 14 13 14 14 11 8 9 11 11 11 10 12
2 2 2 2 7 10 6 9 10 4 4 2 1 3 2 1 3 7 2 2 1 1 1 3 4 4 4 5 4 5 8 7 9 10 12 13 15 16 15 14 15 15 14 14 15 13 12 14 13 13 11 10 11 12 11 10 9 9 8 7 9 11 11 8 5 4 3 3 5 6 7 9 11 12 13 13 13 12 9 7 10 12 11 9 6 12
3 3 4 6 0 1 2 7 5 11 0 2 2 2 1 3 2 1 2 3 3 2 4 4 3 4 4 6 4 6 8 10 9 10 12 13 13 14 14 15 15 15 16 16 15 13 12 12 13 13 11 10 10 9 10 10 10 8 6 8 11 11 8 5 4 2 2 3 5 6 8 10 12 13 12 13 11 9 8 7 8 9 8 8 6 2
3 2 2 4 5 4 4 8 5 0 0 2 3 2 1 2 2 2 1 4 3 3 4 4 4 4 5 5 8 8 8 8 9 10 11 10 11 12 13 12 13 15 16 16 15 13 13 12 11 11 9 10 10 9 9 8 7 7 7 10 11 7 5 4 3 1 2 4 5 6 9 11 12 13 12 12 10 6 6 7 7 8 8 8 3 1
3 6 4 5 2 5 4 2 2 1 3 3 3 2 3 2 2 3 3 1 2 4 2 3 4 4 4 6 7 8 10 9 9 9 11 12 13 13 13 13 13 14 15 16 16 15 12 12 12 11 10 9 10 9 8 6 6 7 8 10 8 7 5 4 1 2 3 4 5 7 10 11 12 12 12 11 4 1 2 6 7 8 7 6 6 4
2 1 0 1 5 3 6 6 6 1 3 2 4 2 3 2 2 3 3 2 2 3 3 2 3 4 4 4 8 8 8 10 12 11 11 12 13 13 12 12 13 13 14 14 15 14 13 12 11 10 11 10 10 8 5 6 5 6 8 9 8 7 5 2 1 1 4 4 5 8 11 12 13 13 14 11 5 5 4 6 8 9 5 6 6 6
2 1 2 4 2 2 3 4 4 2 1 4 5 4 3 2 1 2 2 1 2 2 1 2 2 3 3 3 5 8 10 10 12 12 12 12 13 13 13 13 14 14 15 15 15 14 13 11 10 10 10 10 8 6 6 6 7 7 7 8 9 7 4 0 1 1 3 4 5 9 12 14 9 10 8 8 8 7 6 7 8 7 4 3 6 6
2 3 2 2 4 6 7 1 2 2 3 3 4 2 2 0 2 2 2 1 1 1 1 1 1 2 3 6 7 8 10 11 12 12 12 12 13 14 14 14 15 15 15 15 15 14 12 11 9 9 9 9 9 7 7 7 8 8 9 9 10 6 2 0 0 2 3 3 5 8 10 13 16 16 13 10 9 9 9 8 9 8 5 7 5 6
2 3 2 0 2 5 2 3 3 1 2 3 1 2 2 4 2 1 0 2 1 0 1 1 0 2 2 5 5 7 10 10 9 11 12 12 13 13 14 15 15 15 15 14 13 12 11 10 10 10 9 10 9 7 7 7 7 7 9 10 9 5 3 1 1 3 3 2 6 8 11 11 9 10 10 9 9 7 4 7 8 7 3 4 4 6
1 6 1 2 8 10 9 5 2 3 6 3 3 4 1 2 1 0 1 0 1 1 2 3 4 3 3 4 4 6 9 8 9 9 12 11 12 13 14 15 14 15 14 13 11 11 11 9 9 9 9 8 8 7 7 7 7 7 8 9 7 4 3 1 1 2 3 3 6 8 10 10 8 7 7 7 8 8 6 6 4 6 4 5 5 7
6 4 7 9 10 10 3 8 2 1 4 5 4 5 2 3 2 2 2 0 1 1 1 4 7 7 6 4 4 6 6 7 9 10 11 11 12 12 13 14 14 13 13 12 11 11 10 10 9 8 8 8 7 7 7 7 7 8 10 9 7 4 3 1 0 1 4 5 5 9 9 10 10 11 10 8 8 7 5 3 6 12 13 8 5 6
Wind_Direction
143 198 234 239 245 255 236 204 214 231 225 254 283 315 345 351 311 322 343 309 348 2 295 300 305 328 324 317 309 312 328 80 102 100 88 89 86 80 81 74 70 61 62 54 58 58 61 61 58 63 60 57 60 47 55 20 51 37 20 13 352 356 7 4 6 70 264 302 327 336 216 185 157 171 179 219 219 228 233 240 237 230 228 227 227 224
69 282 263 239 243 248 245 240 245 236 228 213 10 22 359 12 339 321 307 302 325 11 302 327 354 332 316 304 315 321 350 98 123 117 113 98 92 86 79 73 68 72 69 61 53 50 52 44 45 44 38 52 60 36 56 93 91 83 75 164 242 255 181 123 315 351 30 323 321 345 335 8 145 172 199 210 216 222 228 234 238 238 233 230 227 225
280 239 257 260 250 260 266 261 231 100 41 39 55 36 21 331 307 295 315 328 317 341 274 328 358 303 294 309 335 341 47 128 115 112 112 109 101 93 86 84 79 73 67 57 54 48 43 41 36 35 34 30 54 32 23 4 52 87 114 21 322 294 338 32 21 10 7 29 42 38 334 309 293 238 218 219 223 221 228 232 238 244 242 236 234 226
303 277 252 264 284 260 275 8 39 46 60 31 24 51 344 293 11 321 308 320 317 126 282 279 354 314 300 2 37 40 70 77 81 91 96 94 94 86 80 78 76 68 61 59 54 53 51 49 46 42 38 36 47 37 33 34 49 52 58 39 323 324 344 358 347 345 36 80 121 156 220 279 266 249 204 213 216 222 227 234 229 239 244 243 237 233
215 258 277 283 248 221 158 56 58 55 3 337 114 132 321 320 301 229 287 316 320 325 188 28 352 321 10 37 57 44 75 82 75 75 71 69 75 83 83 74 71 73 68 62 57 54 52 51 48 47 42 38 36 38 42 50 43 46 47 35 351 342 340 345 337 342 351 51 100 147 181 237 247 243 214 194 214 212 215 229 228 240 253 249 243 232
303 261 299 347 350 17 65 42 70 105 20 330 300 326 268 281 319 314 313 358 8 337 348 56 14 307 325 57 79 34 64 73 60 77 80 85 84 81 79 80 75 71 65 66 62 58 54 51 47 42 41 40 41 48 50 54 44 36 27 12 8 357 352 340 329 337 16 38 46 56 38 350 326 291 259 238 240 214 207 215 320 233 226 251 255 236
244 287 352 318 27 31 55 102 241 111 118 60 299 314 324 338 320 310 314 23 337 341 299 73 122 280 340 43 61 65 85 76 79 90 96 87 82 81 80 77 73 67 62 55 53 49 47 44 44 41 39 40 45 54 63 54 44 31 11 359 353 349 329 327 329 335 340 353 147 164 167 161 238 305 308 318 343 319 8 149 228 222 202 230 247 254
328 316 330 338 17 62 55 42 294 115 96 349 268 330 5 357 339 309 314 272 231 230 302 67 125 213 341 344 28 327 71 78 80 78 77 78 82 82 79 70 66 64 63 63 58 55 54 52 50 48 43 43 48 57 60 52 42 30 12 354 349 347 340 326 324 326 327 331 321 281 216 185 197 195 243 245 255 296 301 251 233 225 200 187 241 252
260 304 326 327 339 39 77 220 274 166 102 241 307 16 6 345 300 300 297 289 241 64 325 330 351 94 69 287 351 312 81 58 73 85 88 92 88 80 73 73 73 71 67 65 64 58 56 55 53 51 50 45 47 53 54 50 45 37 22 10 356 355 347 336 323 318 317 319 303 295 293 275 224 204 214 213 199 182 228 262 262 260 235 196 206 231
329 304 291 263 46 25 264 278 342 77 52 302 322 11 8 339 315 286 269 287 354 76 310 282 326 114 142 290 341 349 78 89 71 60 58 58 62 64 68 66 67 68 67 64 65 63 59 55 53 52 51 46 43 44 55 56 47 40 33 33 30 21 5 334 319 317 318 319 315 308 297 288 289 274 271 276 245 188 194 236 251 244 244 224 205 219
285 284 239 75 1 324 303 351 62 65 134 235 44 19 340 357 339 346 39 70 63 62 246 274 310 135 143 284 339 281 111 113 100 78 71 67 67 67 65 63 63 64 65 65 66 65 65 61 62 60 58 54 44 36 32 32 43 53 43 31 38 25 9 352 340 322 314 316 317 316 313 307 298 291 293 287 270 242 224 242 254 250 241 235 230 217
349 347 33 317 121 322 35 11 2 53 38 61 45 30 5 345 355 19 338 39 123 247 256 267 357 74 132 257 41 38 47 65 103 105 93 84 78 75 71 68 66 65 65 69 70 73 76 69 63 61 60 54 49 42 35 29 20 21 26 35 42 25 15 4 353 344 324 306 297 291 301 306 305 307 299 281 268 235 237 246 249 246 247 241 236 229
344 14 292 320 321 35 357 43 342 3 18 39 47 36 67 290 29 340 7 354 63 203 243 303 335 21 20 78 100 71 82 81 79 102 106 102 94 85 82 81 82 81 78 70 67 62 54 52 53 54 55 50 44 43 38 32 26 26 24 14 19 23 12 359 346 348 347 336 312 289 292 291 294 291 285 282 273 263 241 234 241 235 237 242 238 229
287 286 5 341 4 14 47 43 332 2 342 12 58 98 71 39 35 315 278 238 316 293 252 306 308 96 176 66 61 105 90 103 110 111 113 111 108 102 96 87 75 68 67 65 63 64 61 58 55 62 64 61 55 47 43 36 34 25 20 17 17 6 10 9 360 352 347 346 340 329 299 290 290 293 292 281 273 269 251 237 240 243 236 231 233 231
25 337 323 7 348 325 23 35 295 257 300 271 174 109 170 150 155 248 228 239 242 246 300 312 8 200 191 192 163 129 130 116 104 95 102 101 106 107 101 90 76 68 70 79 84 84 80 66 66 74 77 69 63 54 46 45 41 31 27 18 15 6 359 359 4 353 349 344 344 337 332 318 306 289 286 286 278 269 261 248 242 244 249 243 239 233
202 224 238 158 236 232 15 317 281 355 338 281 139 90 73 220 133 178 200 176 234 297 342 322 243 331 136 145 141 142 135 109 122 111 105 86 87 116 82 68 69 76 77 83 87 93 102 113 100 93 100 78 72 56 52 51 44 40 27 26 21 11 355 353 352 357 347 342 337 338 334 332 326 316 301 287 280 274 261 256 245 249 248 251 249 245
9 293 282 332 29 57 353 337 326 71 343 275 29 313 233 179 124 72 354 305 88 55 252 210 43 47 87 31 182 167 127 90 93 86 74 75 71 66 65 54 48 45 44 47 56 57 59 45 48 73 93 88 76 66 58 53 41 35 26 27 23 13 4 355 347 343 348 341 337 334 336 335 330 326 320 307 294 283 273 262 256 251 254 255 254 250
155 266 306 43 328 15 342 283 277 243 176 48 355 265 285 96 126 131 221 334 44 158 257 343 216 174 182 208 188 205 116 114 59 69 65 45 37 60 48 51 37 29 11 10 19 12 19 41 37 49 100 108 105 97 76 62 67 52 57 38 28 13 6 357 347 339 340 340 338 335 334 333 330 325 321 315 307 296 287 279 269 262 258 255 256 253
115 319 297 313 319 307 332 8 338 15 74 93 294 259 70 324 331 320 93 329 336 288 272 295 247 211 195 225 172 207 177 167 171 195 117 72 33 77 53 20 354 349 350 352 357 354 352 359 5 123 143 149 123 119 111 121 115 67 60 87 101 29 339 343 341 338 334 336 332 328 326 325 327 326 321 315 311 308 299 291 283 271 263 260 255 256
64 190 299 299 67 295 348 51 328 318 325 111 51 8 335 112 192 17 210 185 137 260 95 285 328 246 215 208 194 190 176 166 183 195 180 170 140 124 110 131 198 256 257 268 275 266 260 259 250 189 161 149 143 134 139 77 46 26 336 38 21 14 349 340 343 341 337 330 328 325 326 325 324 321 318 316 315 310 305 298 291 283 274 264 260 256
293 123 249 282 318 9 335 6 281 243 279 327 0 337 351 335 223 147 286 177 184 209 197 198 280 279 267 213 173 186 166 185 185 171 181 187 192 181 184 199 226 240 229 233 234 235 235 239 247 232 183 165 154 130 105 80 55 298 308 321 249 2 326 322 317 330 328 329 326 327 325 325 326 322 318 314 310 307 303 298 291 285 276 275 265 257
58 106 218 314 357 306 251 231 232 258 233 253 271 266 273 332 352 18 281 349 22 160 229 142 246 271 270 127 154 143 193 193 189 147 190 200 202 219 226 239 227 254 253 228 238 237 241 245 248 227 219 190 139 136 138 171 164 267 264 250 242 231 272 271 284 293 313 321 320 319 317 319 320 317 316 313 310 304 302 300 295 287 284 277 272 256
142 177 87 280 225 246 256 274 264 259 255 246 191 264 335 34 67 86 237 283 348 265 236 182 247 268 242 127 143 160 187 179 187 170 191 205 222 218 231 235 248 243 238 237 237 247 248 243 238 207 195 186 176 181 179 179 167 224 243 247 243 235 276 260 265 266 283 308 319 317 315 315 316 318 316 314 309 303 300 301 297 293 284 279 276 257
112 92 352 273 298 295 297 274 307 343 114 49 18 22 55 34 35 170 200 216 206 283 312 326 242 248 290 120 154 160 152 147 220 187 185 216 244 252 262 272 283 307 294 258 254 262 250 253 260 229 196 197 193 185 187 200 223 240 243 242 245 263 279 282 274 274 287 309 317 316 315 313 314 315 314 311 309 303 300 297 297 295 288 282 276 265
51 294 126 311 340 330 341 345 13 340 50 90 282 267 53 356 350 243 280 45 298 215 193 171 247 262 277 133 96 64 110 189 177 198 153 256 283 273 281 288 283 275 272 263 264 272 277 264 252 246 220 201 201 170 186 215 228 235 249 243 233 243 251 257 269 272 280 301 316 316 315 312 313 314 312 310 306 301 298 298 297 296 289 282 276 257
117 215 97 310 292 319 314 323 301 310 296 293 244 357 334 328 340 354 334 10 261 275 200 186 241 246 269 322 196 268 304 38 257 228 243 217 251 257 262 254 252 249 251 257 265 283 302 305 320 321 305 281 223 172 188 208 217 234 247 262 243 241 258 265 267 260 270 293 308 310 309 309 309 310 309 308 306 302 297 295 297 297 293 285 282 270
155 189 134 172 169 216 227 237 232 59 345 313 299 303 288 196 216 163 116 255 246 261 251 219 216 262 262 249 190 202 192 193 221 249 264 289 289 289 289 300 299 292 286 302 321 332 327 321 314 302 287 282 297 271 241 214 218 224 231 241 245 235 240 251 254 246 246 267 281 298 302 304 303 304 305 305 303 301 298 297 297 295 292 289 283 271
69 227 239 201 214 221 231 242 248 268 258 250 262 286 302 308 306 219 218 251 149 339 279 204 193 221 244 249 232 240 279 271 275 268 287 292 283 265 266 278 305 330 326 321 328 335 331 321 330 333 326 316 310 302 286 262 244 228 219 224 232 236 236 246 251 252 251 258 274 283 294 297 298 300 300 301 302 301 297 295 294 293 291 289 285 275
148 192 257 193 244 231 239 248 256 251 231 234 240 258 275 273 282 278 271 256 205 233 255 277 211 212 251 248 201 221 234 257 267 272 258 255 268 287 308 320 313 299 297 311 318 336 342 346 326 329 313 289 261 264 267 277 274 263 249 232 236 239 238 242 245 258 255 254 263 275 285 292 296 296 299 301 301 300 298 296 293 291 290 289 287 274
93 237 225 197 246 237 250 258 259 263 269 273 267 270 265 266 262 252 257 262 245 245 255 265 277 273 223 218 231 261 259 263 272 270 301 321 310 307 313 305 305 304 312 326 338 338 338 329 295 284 272 270 258 263 278 280 277 268 253 237 235 235 242 243 251 258 259 252 257 271 282 291 296 298 300 301 302 302 301 296 294 291 291 293 289 280
151 272 196 205 279 265 246 259 272 269 270 272 265 257 263 262 264 255 255 263 262 269 259 262 269 276 263 209 268 265 291 295 319 326 322 324 330 336 330 329 324 323 325 337 333 323 315 316 314 306 299 282 264 262 266 268 270 271 260 245 241 237 239 231 248 258 251 255 256 269 283 292 298 301 300 300 301 302 302 299 294 290 290 290 287 280
151 259 32 91 284 278 193 246 261 280 294 283 279 267 258 258 263 254 235 222 205 234 227 265 280 261 270 266 256 253 284 348 357 347 355 344 336 333 330 320 312 311 307 313 309 305 308 304 301 302 298 299 295 281 271 274 277 276 266 251 246 245 242 236 242 253 257 247 260 270 283 292 298 300 300 302 303 303 301 297 291 287 285 283 280 276
178 159 211 176 266 254 214 202 278 338 338 303 264 249 253 249 240 250 251 223 202 149 169 238 245 214 246 312 343 337 359 348 356 356 347 333 319 309 295 291 299 304 294 306 305 300 291 286 288 289 289 291 300 303 302 296 288 280 271 262 254 251 244 241 244 249 255 254 254 272 281 293 298 300 301 303 303 301 299 296 290 287 288 282 277 284
151 171 218 142 223 219 118 28 29 1 280 254 229 199 200 230 228 225 238 206 227 154 203 187 217 254 322 329 342 308 326 317 295 256 244 259 285 294 294 311 302 290 294 300 299 303 306 301 299 301 299 295 293 298 300 302 293 288 282 278 276 261 249 245 250 245 252 258 261 270 284 294 299 299 300 302 301 299 296 293 287 285 285 281 277 275
199 188 226 163 232 260 209 45 357 269 256 270 287 275 184 175 156 198 228 217 199 257 0 344 299 281 274 246 252 285 282 277 245 245 272 271 264 284 309 308 307 309 306 306 308 306 305 304 306 305 306 301 298 297 298 294 291 287 286 281 276 266 257 250 250 251 250 258 266 275 286 293 295 299 301 301 299 297 294 289 284 287 289 281 274 278
220 199 158 233 174 319 253 122 232 247 252 287 294 302 59 85 78 85 310 297 247 155 129 334 318 317 313 309 301 286 294 295 301 238 245 258 270 291 309 306 301 302 303 303 305 306 303 298 290 289 290 293 297 297 297 295 295 290 281 278 269 266 258 254 252 253 255 261 268 277 282 287 296 299 299 298 297 296 294 288 285 289 287 282 276 274
216 145 160 250 166 219 188 200 238 332 314 291 302 270 175 190 188 160 237 278 236 275 69 287 278 284 295 289 297 308 316 323 313 301 246 247 279 297 305 302 306 306 305 305 304 300 290 282 289 289 292 295 295 295 296 295 293 289 286 281 272 260 257 253 252 252 254 261 270 276 281 288 296 298 296 296 296 295 292 288 290 289 283 277 276 280
192 197 187 199 237 183 225 266 297 296 258 296 225 282 330 180 133 148 99 289 305 286 222 187 267 287 305 307 317 315 336 333 314 310 251 251 314 319 305 299 298 297 299 299 300 297 293 292 291 291 291 291 292 292 291 290 291 289 287 282 277 268 261 256 253 252 254 261 268 273 284 293 295 295 295 295 293 291 287 284 284 284 279 274 279 280
207 199 158 197 229 123 201 224 234 242 247 209 278 223 172 149 134 140 44 285 268 268 331 350 319 316 306 312 311 345 8 327 299 302 300 315 315 309 301 298 298 296 292 295 299 301 298 295 292 293 294 291 289 290 291 289 288 289 286 282 276 269 269 262 257 254 253 261 270 285 291 294 294 291 291 291 289 284 281 280 285 286 277 271 269 276
173 168 130 197 231 201 179 220 243 217 244 258 245 212 190 115 74 55 301 285 279 344 326 31 1 346 321 330 325 4 358 315 305 308 325 321 314 311 312 313 313 311 309 305 300 292 290 293 298 297 296 295 291 294 292 292 289 285 283 279 278 280 271 261 253 250 254 269 287 292 292 292 293 290 290 289 285 281 274 282 290 278 272 268 271 279
149 220 171 216 220 220 208 247 290 287 282 278 214 170 244 68 32 272 234 235 285 345 343 43 23 318 341 344 4 327 282 271 289 302 316 318 318 317 317 314 310 313 314 311 305 302 295 291 290 292 295 295 295 296 295 293 288 282 281 282 284 280 270 262 257 256 260 288 293 293 292 290 290 290 288 281 278 276 280 285 281 280 278 268 266 276
249 114 307 234 225 224 214 236 244 267 232 159 251 161 212 42 261 221 233 210 229 46 344 16 353 339 345 327 313 292 295 300 301 303 309 319 321 317 319 321 320 316 311 304 301 302 304 307 308 305 301 296 295 296 294 293 287 282 284 290 284 276 272 267 259 255 291 311 295 295 292 296 293 289 285 280 276 280 287 288 284 284 268 265 240 259
207 133 232 213 227 64 167 253 265 256 83 131 188 15 43 128 225 199 266 326 16 16 7 350 338 313 330 314 311 303 307 309 311 315 319 320 318 319 322 322 320 317 315 313 308 304 305 305 305 302 298 297 294 290 285 289 291 288 291 291 283 281 281 267 254 275 345 305 298 295 299 301 298 297 291 282 278 282 278 281 288 291 291 287 292 237
188 119 214 233 169 177 190 218 221 162 234 351 77 170 339 103 166 188 110 355 326 342 342 340 332 326 323 318 320 317 306 308 314 320 320 321 322 318 315 313 312 312 311 308 304 304 307 303 298 294 294 293 293 291 292 295 290 294 298 289 285 293 279 256 265 26 344 300 298 294 308 308 300 296 292 283 283 265 273 285 287 283 273 281 294 355
183 194 174 199 210 182 204 218 225 240 83 77 103 131 154 145 103 69 77 49 326 325 310 342 322 323 318 312 312 313 318 323 319 322 325 323 320 317 316 315 310 308 307 308 309 306 303 297 295 296 295 293 293 294 296 291 290 301 299 292 298 293 269 260 318 34 313 298 294 313 317 311 302 302 301 295 274 201 312 305 291 273 267 296 327 24
353 353 83 105 259 255 250 226 260 181 131 74 82 136 115 75 64 71 77 16 284 273 293 299 292 293 304 309 323 329 328 324 327 329 325 320 317 314 311 308 306 306 306 308 307 306 303 298 293 294 295 297 294 294 289 292 296 297 290 294 298 283 253 265 23 358 303 293 305 330 328 313 309 314 309 301 339 14 334 285 289 291 298 343 356 15
170 92 131 183 267 75 279 79 70 3 317 130 138 158 151 153 161 168 165 211 244 263 268 264 278 290 301 309 338 329 329 333 328 326 325 321 318 313 312 311 309 308 308 308 305 304 302 296 294 296 299 299 295 291 297 307 307 296 295 302 302 284 255 28 64 305 298 305 331 352 329 315 315 303 289 7 343 322 332 319 317 287 289 75 38 19
314 106 56 233 210 203 234 207 175 191 164 158 149 131 95 136 170 188 193 207 199 220 228 250 276 309 317 348 349 336 333 334 331 330 328 322 317 316 314 311 310 310 308 306 302 301 298 291 288 295 298 298 296 296 301 308 310 311 313 308 299 278 252 72 135 280 290 315 7 349 325 314 324 339 360 350 335 329 337 346 343 311 349 42 60 53
148 49 213 342 257 269 310 255 234 293 191 195 185 199 184 173 182 233 95 140 193 250 256 254 220 282 336 342 336 336 334 333 334 331 322 321 317 312 311 311 309 309 308 306 304 304 302 296 294 294 298 300 299 298 300 303 312 318 320 310 305 274 245 245 245 272 322 347 16 340 323 311 329 345 338 345 321 348 16 359 328 306 38 346 49 77
179 238 183 291 267 254 231 216 181 226 257 297 299 268 200 191 170 94 101 82 306 327 300 328 334 347 356 349 343 344 334 331 332 326 321 316 307 307 311 311 312 312 310 308 309 311 310 308 304 302 304 304 307 305 306 315 323 319 308 299 300 262 241 197 248 309 348 18 7 328 317 315 328 335 342 346 349 333 353 319 360 30 99 108 76 84
183 197 161 219 225 258 155 177 184 252 250 221 222 258 219 221 168 136 152 215 251 200 292 351 339 345 353 351 2 343 339 336 325 327 318 309 309 312 313 315 321 320 315 316 318 318 319 319 321 320 318 318 321 322 324 330 327 325 322 314 304 258 240 159 171 355 8 15 356 321 315 324 339 343 348 357 347 326 334 320 19 52 57 74 63 92